Weather History for Scottsbluff, NE

Change the Weather History Date:

Saturday, December 15, 2012

  Actual Average Record
Temperature  
Mean Temperature 35 °F 25 °F  
Max Temperature 48 °F 39 °F 70 °F (1924)
Min Temperature 21 °F 12 °F -32 °F (1901)
Degree Days  
Heating Degree Days 30 40  
Month to date heating degree days 442 573  
Since 1 July heating degree days 1745 2138  
Cooling Degree Days 0 0  
Month to date cooling degree days 0 0  
Year to date cooling degree days 1208 724  
Moisture  
Dew Point 20 °F    
Average Humidity 57    
Maximum Humidity 77    
Minimum Humidity 37    
Precipitation  
Precipitation 0.00 in 0.02 in 0.23 in (2010)
Month to date precipitation T 0.25  
Year to date precipitation 6.80 15.53  
Snow  
Snow 0.00 in 0.20 in 1.40 in (1964)
Month to date snowfall T 3.4  
Since 1 July snowfall 10.5 12.3  
Snow Depth 0.00 in    
Sea Level Pressure  
Sea Level Pressure 29.74 in    
Wind  
Wind Speed 7 mph (NW)    
Max Wind Speed 15 mph    
Max Gust Speed 20 mph    
Visibility 10 miles    
Events      
T = Trace of Precipitation, MM = Missing Value Source: NWS Daily Summary

Daily Weather History Graph

Daily Weather History Graph

Search for Another Location

Airport:

Trip Planner

Search our weather history database for the weather conditions in past years. The results will help you decide how hot, cold, wet, or windy it might be!

Date:

Astronomy

Dec. 15, 2012 Rise Set
Actual Time 7:15 AM MST 4:24 PM MST
Civil Twilight 6:43 AM MST 4:55 PM MST
Nautical Twilight 6:08 AM MST 5:31 PM MST
Astronomical Twilight 5:34 AM MST 6:05 PM MST
Moon 9:08 AM MST (12/15) 7:33 PM MST (12/15)
Length of Visible Light 10h 12m
Length of Day
9h 08m
Waxing Crescent, 9% of the Moon is Illuminated
Dec 15
Waxing Crescent
Dec 19
First Quarter
Dec 28
Full
Jan 4
Last Quarter
Jan 11
New

Hourly Weather History & Observations

Time (MST) Temp. Windchill Dew Point Humidity Pressure Visibility Wind Dir Wind Speed Gust Speed Precip Events Conditions
12:53 AM 30.0 °F 22.4 °F 18.0 °F 61% 29.62 in 10.0 mi WNW 8.1 mph - N/A   Scattered Clouds
1:53 AM 30.0 °F 19.1 °F 18.0 °F 61% 29.63 in 10.0 mi WNW 15.0 mph - N/A   Clear
2:53 AM 25.0 °F 17.1 °F 17.1 °F 72% 29.66 in 10.0 mi NW 6.9 mph - N/A   Clear
3:53 AM 24.1 °F 16.0 °F 17.1 °F 75% 29.68 in 10.0 mi NW 6.9 mph - N/A   Clear
4:53 AM 23.0 °F 14.7 °F 16.0 °F 74% 29.71 in 10.0 mi NW 6.9 mph - N/A   Clear
5:53 AM 21.9 °F 15.7 °F 16.0 °F 78% 29.75 in 10.0 mi NW 4.6 mph - N/A   Clear
6:53 AM 21.0 °F 12.4 °F 16.0 °F 81% 29.78 in 10.0 mi NW 6.9 mph - N/A   Clear
7:53 AM 30.0 °F 25.2 °F 19.9 °F 66% 29.75 in 10.0 mi NW 4.6 mph - N/A   Clear
8:53 AM 36.0 °F 29.6 °F 21.9 °F 57% 29.76 in 10.0 mi WNW 8.1 mph - N/A   Clear
9:53 AM 39.0 °F 32.3 °F 21.0 °F 49% 29.77 in 10.0 mi West 10.4 mph - N/A   Mostly Cloudy
10:53 AM 39.9 °F 33.9 °F 23.0 °F 51% 29.74 in 10.0 mi NW 9.2 mph - N/A   Clear
11:53 AM 46.0 °F 41.4 °F 23.0 °F 40% 29.70 in 10.0 mi WNW 9.2 mph - N/A   Scattered Clouds
12:53 PM 46.0 °F 41.9 °F 23.0 °F 40% 29.72 in 10.0 mi West 8.1 mph - N/A   Partly Cloudy
1:53 PM 46.0 °F 40.2 °F 21.9 °F 39% 29.71 in 10.0 mi WNW 12.7 mph - N/A   Mostly Cloudy
2:53 PM 45.0 °F 39.7 °F 21.9 °F 40% 29.74 in 10.0 mi NW 10.4 mph - N/A   Clear
3:53 PM 42.1 °F 39.2 °F 21.9 °F 45% 29.77 in 10.0 mi NNW 4.6 mph - N/A   Mostly Cloudy
4:53 PM 37.9 °F 30.9 °F 21.0 °F 51% 29.78 in 10.0 mi NE 10.4 mph - N/A   Overcast
5:53 PM 36.0 °F 30.3 °F 19.9 °F 52% 29.81 in 10.0 mi NE 6.9 mph - N/A   Overcast
6:53 PM 36.0 °F - 19.9 °F 52% 29.83 in 10.0 mi Calm Calm - N/A   Overcast
7:53 PM 34.0 °F 29.8 °F 19.0 °F 54% 29.81 in 10.0 mi SE 4.6 mph - N/A   Overcast
8:53 PM 34.0 °F 28.8 °F 19.0 °F 54% 29.77 in 10.0 mi ESE 5.8 mph - N/A   Overcast
9:53 PM 32.0 °F 26.4 °F 21.9 °F 66% 29.76 in 10.0 mi SE 5.8 mph - N/A   Overcast
10:53 PM 30.0 °F 25.2 °F 21.0 °F 69% 29.77 in 10.0 mi SE 4.6 mph - N/A   Mostly Cloudy
11:53 PM 24.1 °F 17.0 °F 17.1 °F 75% 29.75 in 10.0 mi East 5.8 mph - N/A   Clear